NOAA-17
1 27453U 02032A 12060.63598324 .00000085 00000-0 54386-4 0 06166
2 27453 098.3486 093.1001 0012615 113.1506 247.1024 14.24397733503301
NOAA-18
1 28654U 05018A 12060.69179693 .00000091 00000-0 74782-4 0 00935
2 28654 099.0344 017.9530 0015141 099.1053 261.1811 14.11610661349250
NOAA-19
1 33591U 09005A 12060.67531414 .00000451 00000-0 27366-3 0 02827
2 33591 098.8554 001.8620 0013741 331.3758 028.6649 14.11300382157703
HUBBLE
1 20580U 90037B 12061.24282834 .00001756 00000-0 11752-3 0 9535
2 20580 028.4698 129.7927 0003125 355.7915 004.2744 15.02224665998489
ISS
1 25544U 98067A 12061.60134719 .00019589 00000-0 24753-3 0 1124
2 25544 051.6415 301.5814 0017720 106.9991 253.3471 15.58676725165344
CO-58
1 28895U 05043F 12060.63612906 .00000663 00000-0 14562-3 0 01129
2 28895 097.9329 291.5897 0018609 129.9068 230.3773 14.60498246337814
FALCON
1 30776U 07006E 12060.88014392 .00003373 00000-0 22517-3 0 03024
2 30776 035.4321 217.9662 0001145 144.0388 216.0406 15.06708017273900
MAST
1 31126U 07012K 12060.98241875 .00000457 00000-0 11192-3 0 04028
2 31126 097.8792 078.3997 0095093 087.8923 273.3161 14.54044469258541
CAPE1
1 31130U 07012P 12060.58192933 .00000431 00000-0 10791-3 0 04104
2 31130 097.8870 074.4787 0103167 101.5105 259.7689 14.52782108258006
COMPASS
1 32787U 08021E 12060.83381684 .00001707 00000-0 21318-3 0 2365
2 32787 097.8134 124.5365 0016213 058.4047 301.8737 14.83554968207740
AAUSAT2
1 32788U 08021F 12060.82564694 .00002066 00000-0 25500-3 0 2286
2 32788 097.8134 124.8526 0016024 059.1379 301.1396 14.83839776207768
DO-64
1 32789U 08021G 12060.83607568 .00003163 00000-0 37613-3 0 2429
2 32789 097.8250 126.5048 0015762 056.4007 303.8702 14.85019263207798
CO-66
1 32791U 08021J 12060.64871676 .00001152 00000-0 14773-3 0 02309
2 32791 097.8137 124.1752 0016773 057.7563 302.5281 14.83049885207659
RS-30
1 32953U 08025A 12061.27462518 .00000010 00000-0 00000 0 0 5684
2 32953 082.5071 002.2400 0018169 180.0752 180.0330 12.43021231171152
TACSAT-3
1 35001U 09028A 12060.96391961 .00128461 00000-0 76465-3 0 08881
2 35001 040.4484 024.6620 0009162 219.7324 140.2889 15.76685328157311
PHARMSAT
1 35002U 09028B 12060.29661920 .00051521 00000-0 48269-3 0 08156
2 35002 040.4665 034.4043 0005388 340.6133 019.4477 15.66302815157157
METEOR-M
1 35865U 09049A 12060.91989556 -.00000025 00000-0 85976-5 0 01901
2 35865 098.6692 117.2075 0002910 022.3588 337.7716 14.21856202127210
RS-38
1 35869U 09049E 12061.37881515 .00000021 00000-0 29239-4 0 1995
2 35869 098.6661 117.6711 0004894 014.5570 345.5749 14.22056240127294
JUGNU
1 37839U 11058B 12058.86066747 .00000619 00000-0 19019-3 0 00984
2 37839 019.9636 306.6131 0019653 088.0494 272.2161 14.12028722019632
SRMSAT
1 37841U 11058D 12060.03897193 .00000264 00000-0 00000-0 0 00990
2 37841 019.9756 302.1964 0011552 073.3143 286.8600 14.10117785019771
RAX-2
1 37853U 11061D 12060.98411438 .00005506 00000-0 44681-3 0 01154
2 37853 101.7140 051.9824 0250769 299.1428 058.4883 14.79011983018407
AUBIESAT
1 37854U 11061E 12060.89654672 .00006067 00000-0 48569-3 0 01178
2 37854 101.7173 051.9680 0251218 298.8110 058.8083 14.79329377018379
HRBE
1 37855U 11061F 12060.96887760 .00005683 00000-0 45603-3 0 01228
2 37855 101.7198 052.0630 0251726 298.7699 058.8444 14.79226339018385
RS-39
1 38051U 11062C 12061.34595031 .00007417 00000-0 32918-3 0 1107
2 38051 051.6515 313.0075 0011580 014.4656 095.3376 15.22503962 5533
